Content
SEND FEEDBACK

Daily
Averages
Monthly
Summary
United States of America

ASHEVILLE, NORTH CAROLINA


Home > North America > United States > North Carolina
Elevation: 2240 feet     Latitude: 35 36N     Longitude: 082 32W

WEATHER
 
SELECT A DAY
Number of Records: 226,296;   Date Range: 1/1/95 - 8/30/14
 
SHARE

PRINT THIS DATA

[ ← Previous Day ]
WEATHER ALMANAC - JANUARY 15, 2013
[ Next Day → ]
[ °C ]   °F
Weather ElementAverageHighLow
Temperature49.1 °F53.6 °F (10:15 am)44.6 °F (10:19 pm)
Dewpoint48.3 °F52 °F (9:54 am)44.1 °F (10:54 pm)
Humidity97.1 %100 % (3:38 am)88 % (2:01 pm)
Barometer30.08 in30.14 in (2:23 am)30.01 in (11:54 pm)
Wind Speed6 mph11.5 mph (2:45 pm)
Wind Gust16.1 mph (3:02 pm)
Weather ElementAverage
Visibility3.6 mi
Wind DirectionESE (126.5 °)

Weather ElementTotal
Precipitation2.08 in
Heating Degree Days15.9 (Base 65)
Averaged from 57 records on January 15, 2013
WEATHER CONDITIONS BREAKOUT
WIND DIRECTION BREAKOUT
WEATHER BY HOUR - JANUARY 15, 2013
[ °C ]   °F
Local TimeTemperatureDewpointHumidityBarometerVisibilityWind DirectionWind SpeedGust SpeedPrecipitationEventsConditions
1:54 AM46.0 °F45.0 °F96 %30.12 in10.0 miSSE (160°)3.5 mph0.00 inRainLight Rain
2:23 AM46.4 °F44.6 °F93 %30.14 in10.0 miCalm0.01 inOvercast
2:54 AM46.0 °F45.0 °F96 %30.12 in10.0 miCalm0.01 inOvercast
3:38 AM46.4 °F46.4 °F100 %30.10 in10.0 miCalm0.00 inRainLight Rain
3:54 AM46.9 °F46.0 °F97 %30.10 in10.0 miCalm0.00 inRainLight Rain
4:54 AM46.9 °F46.0 °F97 %30.07 in4.0 miCalm0.01 inRainLight Rain
5:05 AM46.4 °F46.4 °F100 %30.09 in5.0 miCalm0.00 inRainLight Rain
5:24 AM46.4 °F46.4 °F100 %30.08 in2.5 miCalm0.01 inRainLight Rain
5:34 AM46.4 °F46.4 °F100 %30.08 in3.0 miCalmRainLight Rain
5:54 AM46.9 °F46.9 °F100 %30.09 in3.0 miCalm0.02 inRainLight Rain
6:15 AM48.2 °F46.4 °F93 %30.10 in2.5 miCalm0.09 inRainHeavy Rain
6:23 AM48.2 °F48.2 °F100 %30.10 in4.0 miCalmRainRain
6:34 AM48.2 °F48.2 °F100 %30.11 in5.0 miCalm0.13 inRainRain
6:54 AM48.9 °F48.0 °F97 %30.09 in5.0 miCalm0.17 inRainRain
7:02 AM48.2 °F48.2 °F100 %30.10 in2.0 miSE (130°)4.6 mph0.02 inRainRain
7:54 AM51.1 °F50.0 °F96 %30.11 in2.0 miSSE (160°)4.6 mph0.07 inRainRain
8:01 AM51.8 °F51.8 °F100 %30.13 in5.0 miSouth (170°)6.9 mph0.02 inRainRain
8:29 AM51.8 °F51.8 °F100 %30.12 in8.0 miSSE (160°)8.1 mph0.05 inRainLight Rain
8:39 AM51.8 °F51.8 °F100 %30.13 in10.0 miSSE (160°)9.2 mph0.06 inRainLight Rain
8:54 AM52.0 °F51.1 °F97 %30.12 in5.0 miSSE (160°)8.1 mph0.08 inRainRain
9:02 AM51.8 °F51.8 °F100 %30.13 in3.0 miSouth (170°)9.2 mph0.02 inRainRain
9:16 AM51.8 °F51.8 °F100 %30.12 in3.0 miSSE (160°)6.9 mph0.04 inRainLight Rain
9:28 AM51.8 °F51.8 °F100 %30.12 in3.0 miSouth (170°)9.2 mph0.04 inRainLight Rain
9:54 AM53.1 °F52.0 °F96 %30.11 in3.0 miSouth (170°)9.2 mph0.06 inRainLight Rain
10:15 AM53.6 °F51.8 °F94 %30.13 in5.0 miSSE (160°)6.9 mph0.01 inRainLight Rain
10:22 AM53.6 °F51.8 °F94 %30.13 in5.0 miSSE (160°)9.2 mph0.01 inRainLight Rain
10:54 AM53.1 °F52.0 °F96 %30.12 in9.0 miSouth (170°)4.6 mph0.04 inRainLight Rain
11:06 AM53.6 °F51.8 °F94 %30.13 in2.5 miSSE (160°)8.1 mph0.00 inRainLight Rain
11:45 AM51.8 °F51.8 °F100 %30.11 in2.5 miSSE (160°)6.9 mph0.03 inRainLight Rain
11:54 AM52.0 °F51.1 °F97 %30.09 in2.5 miSouth (170°)8.1 mph0.04 inRainLight Rain
12:01 PM51.8 °F51.8 °F100 %30.10 in1.5 miSSE (160°)9.2 mph0.00 inRainLight Rain
12:34 PM51.8 °F51.8 °F100 %30.09 in1.5 miSSE (160°)8.1 mph0.04 inRainLight Rain
12:54 PM51.1 °F50.0 °F96 %30.06 in1.5 miSSE (160°)9.2 mph0.04 inRainLight Rain
1:01 PM51.8 °F50.0 °F94 %30.08 in4.0 miSSE (160°)8.1 mph0.00 inRainLight Rain
1:08 PM51.8 °F50.0 °F94 %30.08 in1.5 miSSE (160°)6.9 mph0.01 inRainLight Rain
1:54 PM51.1 °F48.9 °F92 %30.04 in1.5 miSSE (150°)8.1 mph0.03 inRainLight Rain
2:01 PM51.8 °F48.2 °F88 %30.06 in2.0 miSouth (170°)9.2 mph0.01 inRainLight Rain
2:45 PM51.8 °F48.2 °F88 %30.05 in2.0 miSSE (160°)11.5 mph0.02 inRainLight Rain
2:54 PM50.0 °F48.9 °F96 %30.04 in2.0 miSSE (150°)10.4 mph0.02 inRainLight Rain
3:02 PM50.0 °F48.2 °F94 %30.06 in2.0 miSSE (160°)6.9 mph16.1 mphRainLight Rain
3:10 PM50.0 °F48.2 °F94 %30.05 in2.0 miSSE (160°)6.9 mph0.01 inRainLight Rain
3:29 PM50.0 °F48.2 °F94 %30.05 in2.0 miSSE (160°)8.1 mph0.02 inRainLight Rain
3:54 PM50.0 °F48.9 °F96 %30.04 in2.0 miSouth (170°)10.4 mph0.05 inRainLight Rain
4:54 PM48.9 °F48.0 °F97 %30.04 in2.0 miSouth (170°)9.2 mph0.05 inRainLight Rain
5:54 PM48.0 °F46.9 °F96 %30.05 in2.0 miSSE (160°)10.4 mph0.10 inRainHeavy Rain
6:54 PM46.9 °F46.0 °F97 %30.06 in2.0 miSSE (160°)8.1 mph0.10 inRainLight Rain
7:07 PM46.4 °F46.4 °F100 %30.07 in2.0 miSouth (170°)8.1 mph0.01 inRainLight Rain
7:32 PM46.4 °F46.4 °F100 %30.07 in2.0 miSouth (170°)8.1 mph0.04 inRainRain
7:43 PM46.4 °F46.4 °F100 %30.06 in2.0 miSouth (180°)8.1 mph0.07 inRainRain
7:54 PM46.0 °F46.0 °F100 %30.04 in2.0 miSouth (170°)8.1 mph0.08 inRainLight Rain
8:52 PM46.4 °F44.6 °F93 %30.04 in2.0 miSSE (160°)6.9 mph0.08 inRainLight Rain
8:54 PM46.0 °F45.0 °F96 %30.03 in2.0 miSouth (170°)8.1 mph0.08 inRainLight Rain
9:54 PM45.0 °F45.0 °F100 %30.03 in2.0 miSouth (170°)6.9 mph0.06 inRainLight Rain
10:19 PM44.6 °F44.6 °F100 %30.04 in2.0 miSouth (170°)5.8 mph0.02 inRainLight Rain
10:27 PM44.6 °F44.6 °F100 %30.04 in2.0 miSouth (180°)6.9 mph0.02 inRainLight Rain
10:54 PM45.0 °F44.1 °F97 %30.03 in2.0 miSouth (180°)3.5 mph0.03 inRainLight Rain
11:54 PM45.0 °F44.1 °F97 %30.01 in2.0 miSouth (170°)5.8 mph0.05 inRainLight Rain
Hourly data recorded from KAVL, located miles away from Asheville, North Carolina







STORIES FROM OUR PARTNERS